Waarnemingen

Advertentie
Mijn weer
Leucate/Semaphore, Frankrijk (7666): temperatuur & dauwpunt: 15.01.2017 01:00:00 - 21.01.2017 01:00:00 (CET)Leucate/Semaphore, Frankrijk (7666): windsnelheid & windstoten: 15.01.2017 01:00:00 - 21.01.2017 01:00:00 (CET)Leucate/Semaphore, Frankrijk (7666): windrichting: 15.01.2017 01:00:00 - 21.01.2017 01:00:00 (CET)Leucate/Semaphore, Frankrijk (7666): luchtdruk: 15.01.2017 01:00:00 - 21.01.2017 01:00:00 (CET)Leucate/Semaphore, Frankrijk (7666): zicht: 15.01.2017 01:00:00 - 21.01.2017 01:00:00 (CET)Leucate/Semaphore, Frankrijk (7666): neerslag: 15.01.2017 01:00:00 - 21.01.2017 01:00:00 (CET)
Datum & Tijd tt [°C] td [°C] ff [km/u] ff [kn] fx [km/u] fx [kn] dd ppp [hPa] vv [km] rr [mm]
21.01.2017 01:00:00 - - - - - - - - - -
21.01.2017 00:00:00 10,0 5,2 28 15 48 26 O 1024,6 - 0,0
20.01.2017 23:00:00 10,1 5,5 36 19 54 29 OZO 1024,7 - 0,0
20.01.2017 22:00:00 10,1 5,3 41 22 58 31 OZO 1024,5 - 0,0
20.01.2017 21:00:00 10,6 6,3 39 21 61 33 OZO 1024,3 - 0,0
20.01.2017 20:00:00 10,4 5,4 42 23 67 36 O 1023,8 - 0,0
20.01.2017 19:00:00 10,7 6,4 44 24 70 38 O 1023,6 - 0,0
20.01.2017 18:00:00 10,8 5,3 43 23 59 32 O 1023,3 - 0,0
20.01.2017 17:00:00 10,7 5,4 44 24 57 31 OZO 1023,4 - 0,0
20.01.2017 16:00:00 10,6 4,7 38 20 58 31 O 1023,6 8 0,0
20.01.2017 15:00:00 10,1 6,2 35 19 56 31 O 1024,0 - 0,0
20.01.2017 14:00:00 9,8 6,3 35 19 63 34 O 1023,9 - 0,2
20.01.2017 13:00:00 9,2 5,2 43 23 61 33 O 1024,2 8 0,0
20.01.2017 12:00:00 8,8 5,0 35 19 58 31 ONO 1025,2 - 0,0
20.01.2017 11:00:00 8,3 4,1 24 13 55 30 ONO 1025,4 - 0,0
20.01.2017 10:00:00 4,0 -0,6 14 8 31 17 NW 1026,1 10 0,0
20.01.2017 09:00:00 3,9 -1,1 19 10 32 17 NNW 1025,7 - 0,2
20.01.2017 08:00:00 2,7 -2,2 16 9 26 14 NW 1026,0 18 0,0
20.01.2017 07:00:00 3,3 -3,1 15 8 27 15 NNW 1025,7 18 0,0
20.01.2017 06:00:00 3,2 -3,4 17 9 29 16 NNW 1025,7 - 0,0
20.01.2017 05:00:00 3,6 -2,8 19 11 31 17 N 1026,1 - 0,0
20.01.2017 04:00:00 3,6 -2,8 13 7 24 13 NNW 1026,8 18 0,0
20.01.2017 03:00:00 3,2 -2,3 18 10 30 16 N 1026,7 - 0,0
20.01.2017 02:00:00 3,3 -2,9 20 11 30 16 NNW 1026,4 - 0,0
20.01.2017 01:00:00 4,5 -1,9 18 10 25 13 NNW 1026,4 - 0,0
20.01.2017 00:00:00 4,6 -2,5 15 8 19 10 NNW 1026,9 - 0,0
19.01.2017 23:00:00 4,4 -3,4 13 7 20 11 NNW 1026,9 - 0,0
19.01.2017 22:00:00 4,1 -3,9 14 7 19 10 NNW 1026,5 - 0,0
19.01.2017 21:00:00 3,3 -4,0 12 6 15 8 NNW 1026,5 - 0,0
19.01.2017 20:00:00 3,1 -5,1 9 5 15 8 WNW 1026,3 - 0,0
19.01.2017 19:00:00 4,3 -4,7 14 7 23 12 WNW 1026,2 15 0,0
19.01.2017 18:00:00 4,9 -3,9 14 8 23 13 NNW 1025,6 - 0,0
19.01.2017 17:00:00 6,5 -4,3 12 7 23 12 NNW 1025,5 - 0,0
19.01.2017 16:00:00 7,1 -3,8 13 7 22 12 N 1025,6 - 0,0
19.01.2017 15:00:00 6,7 -5,0 14 8 24 13 N 1025,7 - 0,0
19.01.2017 14:00:00 6,4 -6,2 16 9 30 16 N 1025,7 - 0,0
19.01.2017 13:00:00 5,8 -6,1 16 9 31 17 NNW 1026,2 18 0,0
19.01.2017 12:00:00 4,4 -6,5 19 11 34 18 NW 1026,8 - 0,0
19.01.2017 11:00:00 2,7 -6,4 20 11 36 19 NW 1027,0 - 0,0
19.01.2017 10:00:00 1,3 -6,5 21 12 36 20 NW 1026,4 18 0,0
19.01.2017 09:00:00 -0,9 -7,1 22 12 35 19 NW 1026,1 - 0,0
19.01.2017 08:00:00 -1,7 -7,2 19 10 32 17 NW 1025,6 - 0,0
19.01.2017 07:00:00 -1,8 -7,5 19 10 34 18 NW 1025,3 15 0,0
19.01.2017 06:00:00 -1,8 -7,3 21 12 34 19 NW 1025,0 - 0,0
19.01.2017 05:00:00 -1,4 -7,5 19 10 37 20 NW 1025,2 - 0,0
19.01.2017 04:00:00 -1,5 -7,4 21 11 39 21 NW 1025,2 - 0,0
19.01.2017 03:00:00 -1,5 -7,0 22 12 38 21 NW 1025,3 - 0,0
19.01.2017 02:00:00 -1,6 -7,3 20 11 48 26 NW 1024,9 - 0,0
19.01.2017 01:00:00 -1,0 -7,0 24 13 41 22 NW 1024,2 - 0,0
19.01.2017 00:00:00 -0,2 -7,5 26 14 50 27 NW 1024,4 - 0,0
18.01.2017 23:00:00 -0,3 -7,4 27 14 53 28 NW 1024,1 - 0,0
18.01.2017 22:00:00 0,0 -7,5 29 16 61 33 NW 1023,9 - 0,0
18.01.2017 21:00:00 0,1 -7,4 31 17 60 33 NW 1023,6 - 0,0
18.01.2017 20:00:00 0,1 -7,4 32 17 58 31 NW 1023,8 - 0,0
18.01.2017 19:00:00 0,3 -7,2 26 14 49 26 NW 1023,6 16 0,0
18.01.2017 18:00:00 0,7 -7,6 31 17 54 29 NW 1022,8 - 0,0
18.01.2017 17:00:00 1,7 -7,6 28 15 58 31 NW 1022,4 - 0,0
18.01.2017 16:00:00 2,7 -7,5 32 17 67 36 NW 1022,2 20 0,0
18.01.2017 15:00:00 2,3 -7,3 31 17 63 34 NW 1022,7 - 0,0
18.01.2017 14:00:00 2,4 -7,5 34 18 70 38 NW 1022,7 - 0,0
18.01.2017 13:00:00 3,2 -7,6 30 16 66 36 NW 1022,7 20 0,0
18.01.2017 12:00:00 2,4 -7,5 36 19 74 40 NW 1023,8 - 0,0
18.01.2017 11:00:00 1,7 -7,9 41 22 72 39 NW 1023,1 - 0,0
18.01.2017 10:00:00 0,8 -8,2 36 19 70 38 NW 1022,7 20 0,0
18.01.2017 09:00:00 -0,4 -8,4 36 19 62 34 NW 1022,7 - 0,0
18.01.2017 08:00:00 -0,6 -8,3 32 18 64 35 NW 1022,0 - 0,0
18.01.2017 07:00:00 -0,5 -8,2 32 17 60 32 NW 1021,8 25 0,0
18.01.2017 06:00:00 -0,8 -8,0 31 17 61 33 NW 1021,7 - 0,0
18.01.2017 05:00:00 -0,9 -7,3 34 18 70 38 NW 1021,6 - 0,0
18.01.2017 04:00:00 -0,7 -7,3 35 19 61 33 NW 1021,7 25 0,0
18.01.2017 03:00:00 -0,6 -7,2 27 15 53 29 NW 1022,4 - 0,0
18.01.2017 02:00:00 -0,3 -6,9 24 13 50 27 NW 1022,3 - 0,0
18.01.2017 01:00:00 0,1 -6,8 22 12 52 28 NW 1022,4 - 0,0
18.01.2017 00:00:00 0,6 -7,4 29 15 54 29 NW 1022,0 - 0,0
17.01.2017 23:00:00 1,0 -6,3 25 13 60 33 NW 1022,4 - 0,0
17.01.2017 22:00:00 1,7 -6,6 32 17 66 36 NW 1021,9 - 0,0
17.01.2017 21:00:00 2,0 -6,6 35 19 81 44 NW 1021,3 - 0,0
17.01.2017 20:00:00 2,2 -6,9 37 20 78 42 NW 1020,4 - 0,0
17.01.2017 19:00:00 2,0 -6,8 37 20 87 47 NW 1019,8 25 0,0
17.01.2017 18:00:00 1,9 -6,4 41 22 79 43 NW 1019,2 - 0,0
17.01.2017 17:00:00 2,5 -6,1 35 19 76 41 NW 1019,5 - 0,0
17.01.2017 16:00:00 3,1 -6,9 39 21 83 45 NW 1019,5 20 0,0
17.01.2017 15:00:00 2,9 -7,3 46 25 83 45 NW 1019,2 - 0,0
17.01.2017 14:00:00 3,0 -7,2 41 22 77 41 NW 1019,5 - 0,0
17.01.2017 13:00:00 2,7 -7,5 45 24 81 44 WNW 1019,8 30 0,0
17.01.2017 12:00:00 2,7 -7,5 35 19 77 41 NW 1019,9 - 0,0
17.01.2017 11:00:00 1,9 -7,4 35 19 68 37 NW 1020,1 - 0,0
17.01.2017 10:00:00 1,3 -7,7 35 19 65 35 NW 1019,7 22 0,0
17.01.2017 09:00:00 0,6 -7,4 32 17 67 36 NW 1019,0 - 0,0
17.01.2017 08:00:00 0,3 -7,7 32 17 64 35 NW 1018,6 - 0,0
17.01.2017 07:00:00 0,7 -8,3 29 16 61 33 NW 1018,5 22 0,0
17.01.2017 06:00:00 0,9 -7,4 36 19 82 45 NW 1017,4 - 0,0
17.01.2017 05:00:00 1,4 -7,9 40 22 78 42 NW 1017,7 - 0,0
17.01.2017 04:00:00 1,6 -7,5 40 22 82 44 NW 1017,5 - 0,0
17.01.2017 03:00:00 1,9 -7,2 44 24 85 46 NW 1017,7 - 0,0
17.01.2017 02:00:00 2,4 -7,5 42 23 77 42 NW 1017,4 - 0,0
17.01.2017 01:00:00 2,9 -7,6 44 24 85 46 NW 1018,0 - 0,0
17.01.2017 00:00:00 3,0 -7,0 40 22 76 41 NNW 1019,0 - 0,0
16.01.2017 23:00:00 3,7 -6,3 42 23 72 39 NNW 1019,1 - 0,0
16.01.2017 22:00:00 4,4 -6,8 40 22 72 39 NNW 1019,3 - 0,0
16.01.2017 21:00:00 4,9 -7,3 39 21 68 37 NNW 1019,2 - 0,0
16.01.2017 20:00:00 5,9 -2,5 42 23 71 38 NNW 1018,3 - 0,0
16.01.2017 19:00:00 6,3 -2,1 44 24 72 39 N 1017,3 22 0,0
16.01.2017 18:00:00 7,2 -1,2 39 21 64 35 N 1016,5 - 0,0
16.01.2017 17:00:00 8,0 0,0 35 19 75 40 N 1015,9 - 0,0
16.01.2017 16:00:00 9,8 1,2 33 18 59 32 N 1015,8 30 0,0
16.01.2017 15:00:00 9,4 1,1 35 19 61 33 N 1015,8 - 0,0
16.01.2017 14:00:00 10,5 1,0 44 24 72 39 NNW 1015,9 - 0,0
16.01.2017 13:00:00 9,9 2,5 36 19 72 39 NNW 1016,5 35 0,0
16.01.2017 12:00:00 9,6 3,1 30 16 69 37 NNW 1017,2 - 0,0
16.01.2017 11:00:00 9,1 3,5 33 18 55 30 NNW 1017,5 - 0,0
16.01.2017 10:00:00 8,4 4,0 25 13 - - NW 1017,4 - 0,0
16.01.2017 09:00:00 7,7 3,4 21 11 43 23 NW 1017,2 - 0,0
16.01.2017 08:00:00 7,1 3,7 21 11 41 22 NW 1017,1 - 0,0
16.01.2017 07:00:00 6,6 3,6 21 11 47 26 NW 1017,1 22 0,0
16.01.2017 06:00:00 6,1 2,9 21 11 45 24 NW 1017,2 - 0,0
16.01.2017 05:00:00 5,1 2,4 6 3 26 14 NW 1018,4 - 0,0
16.01.2017 04:00:00 5,7 2,5 17 9 41 22 NW 1018,9 - 0,0
16.01.2017 03:00:00 5,6 2,1 17 9 42 23 NW 1019,4 - 0,0
16.01.2017 02:00:00 5,8 2,3 21 11 51 28 NW 1019,8 - 0,0
16.01.2017 01:00:00 5,9 2,4 25 13 55 30 NW 1020,0 - 0,0
16.01.2017 00:00:00 5,3 1,8 26 14 48 26 NW 1020,7 - 0,0
15.01.2017 23:00:00 5,2 1,5 27 15 49 26 NW 1021,5 - 0,0
15.01.2017 22:00:00 5,6 0,9 24 13 45 24 NW 1022,2 18 0,0
15.01.2017 21:00:00 5,6 0,9 22 12 50 27 NW 1022,7 - 0,0
15.01.2017 20:00:00 5,9 0,4 30 16 59 32 NW 1022,5 - 0,0
15.01.2017 19:00:00 6,1 -0,2 29 16 66 35 NNW 1022,6 22 0,0
15.01.2017 18:00:00 6,4 -1,0 37 20 77 42 NW 1022,0 - 0,0
15.01.2017 17:00:00 6,6 -2,1 41 22 75 40 NNW 1021,8 - 0,0
15.01.2017 16:00:00 6,7 -3,0 43 23 81 44 NW 1021,7 - 0,0
15.01.2017 15:00:00 6,7 -2,7 37 20 89 48 NW 1021,6 - 0,0
15.01.2017 14:00:00 7,1 -3,2 43 23 89 48 NW 1021,4 - 0,0
15.01.2017 13:00:00 7,4 -3,2 42 23 85 46 NW 1021,4 - 0,0
15.01.2017 12:00:00 6,7 -2,5 43 23 82 44 NW 1021,6 - 0,0
15.01.2017 11:00:00 6,9 -3,1 44 24 83 45 NNW 1022,0 - 0,0
15.01.2017 10:00:00 6,5 -2,2 44 24 75 41 NNW 1022,0 - 0,0
15.01.2017 09:00:00 5,8 -1,6 35 19 69 37 NNW 1021,2 - 0,0
15.01.2017 08:00:00 5,5 -0,1 31 17 59 32 NW 1020,6 - 0,0
15.01.2017 07:00:00 5,4 0,4 29 16 65 35 NW 1019,6 18 0,0
15.01.2017 06:00:00 5,6 1,3 35 19 74 40 NW 1018,8 - 0,0
15.01.2017 05:00:00 5,8 1,5 35 19 77 42 NW 1018,8 - 0,0
15.01.2017 04:00:00 5,9 1,6 38 21 73 39 NW 1019,1 15 0,0
15.01.2017 03:00:00 5,8 0,7 31 17 69 38 NW 1019,9 - 0,0
15.01.2017 02:00:00 5,6 0,6 33 18 69 38 NW 1020,0 - 0,0
15.01.2017 01:00:00 5,8 0,1 37 20 77 42 NW 1020,6 - 0,0

tt = temperatuur
td = dauwpunt
ff = windsnelheid
fx = windstoten
dd = windrichting
ppp = luchtdruk
vv = zicht
rr = neerslag

Weerstations in de omgeving